{"data":{"norad_id":48575,"intl_designator":"2021-041Y","name":"STARLINK-2227","alt_names":[],"object_type":"PAYLOAD","status":"ACTIVE","operator":null,"country":"US","launch_date":"2021-05-15","launch_site_code":"AFETR","launch_vehicle":null,"mission":null,"orbit_class":"UNKNOWN","rcs_meters":null,"size_class":null,"mass_kg":null,"dimensions":null,"purposes":["comms"],"wikipedia_slug":null,"has_3d_model":false,"image_url":null,"decayed_at":null,"tle_current":{"epoch":"2026-09-19T16:01:17.870880Z","epoch_age_seconds":109215,"freshness":"FRESH","line1":"1 48575U 21041Y   26262.66756795  .00033444  00000+0  10091-2 0  9996","line2":"2 48575  53.1588 265.1840 0004175  57.1615 302.9789 15.33999153295551","mean_motion":15.33999153,"eccentricity":0.0004175,"inclination_deg":53.1588,"raan_deg":265.184,"arg_perigee_deg":57.1615,"mean_anomaly_deg":302.9789,"bstar":0.0010091,"rev_number":29555,"period_min":93.872281297146,"perigee_km":461.03835307558,"apogee_km":466.75144971324,"semimajor_km":6842.0319013944,"source":"CELESTRAK","updated_at":"2026-09-20T09:00:39.135559Z"}}}